DW7322 Weather Reports


Display with metric or nautical units.
time (UTC)temp
F
wind
direction
speed
MPH
gust
MPH
rain 1hr
in
rain 24hr
in
rain mn
in
humidity
%
barometer
mb
20260903194515 91 209 0.0 3.0 0.00 0.00 0.00 65 1012.5
20260903193022 90 205 0.0 1.0 0.00 0.00 0.00 65 1012.7
20260903191553 89 145 0.0 0.0 0.00 0.00 0.00 68 1012.8
20260903190101 89 223 0.0 2.0 0.00 0.00 0.00 67 1012.9
20260903184554 88 233 0.0 1.0 0.00 0.00 0.00 68 1013.0
20260903183031 88 184 0.0 3.0 0.00 0.00 0.00 70 1013.2
20260903181532 87 17 0.0 0.0 0.00 0.00 0.00 69 1013.3
20260903180059 86 325 0.0 0.0 0.00 0.00 0.00 71 1013.6
20260903174549 83 359 0.0 0.0 0.00 0.00 0.00 76 1013.7
20260903173014 82 271 0.0 2.0 0.00 0.00 0.00 76 1014.1
20260903171532 83 359 0.0 1.0 0.00 0.00 0.00 77 1014.1
20260903164510 84 7 0.0 0.0 0.00 0.00 0.00 75 1014.3
20260903163031 85 343 0.0 0.0 0.00 0.00 0.00 75 1014.3
20260903161558 85 346 0.0 1.0 0.00 0.00 0.00 74 1014.2
20260903160104 84 319 0.0 0.0 0.00 0.00 0.00 74 1013.9
20260903154556 85 315 0.0 1.0 0.00 0.00 0.00 75 1013.9
20260903153016 86 294 0.0 0.0 0.00 0.00 0.00 78 1014.0
20260903151532 88 292 0.0 0.0 0.00 0.00 0.00 77 1013.0
20260903150057 87 241 0.0 0.0 0.00 0.00 0.00 75 1012.9
20260903144550 86 250 0.0 0.0 0.00 0.00 0.00 78 1013.0
20260903143006 84 251 0.0 0.0 0.00 0.00 0.00 81 1013.0
20260903141520 82 14 0.0 0.0 0.00 0.00 0.00 85 1012.9
20260903140010 80 243 0.0 0.0 0.00 0.00 0.00 89 1012.7
20260903134517 77 243 0.0 0.0 0.00 0.00 0.00 91 1012.8
20260903133044 76 243 0.0 0.0 0.00 0.00 0.00 94 1013.0
20260903131544 75 243 0.0 0.0 0.00 0.00 0.00 94 1013.0
20260903130104 74 244 0.0 0.0 0.00 0.00 0.00 95 1013.1
20260903124601 73 244 0.0 0.0 0.00 0.00 0.00 95 1013.1
20260903123010 73 243 0.0 0.0 0.00 0.00 0.00 95 1013.2
20260903121540 72 243 0.0 0.0 0.00 0.00 0.00 95 1013.1
20260903120055 72 244 0.0 0.0 0.00 0.00 0.00 95 1013.2
20260903114548 72 243 0.0 0.0 0.00 0.00 0.00 95 1013.1
20260903113015 72 243 0.0 0.0 0.00 0.00 0.00 95 1013.0
20260903111530 72 243 0.0 0.0 0.00 0.00 0.00 95 1013.0
20260903110022 72 244 0.0 0.0 0.00 0.00 0.00 95 1012.9
20260903104541 72 243 0.0 0.0 0.00 0.00 0.00 95 1013.0
20260903103009 72 243 0.0 0.0 0.00 0.00 0.00 95 1012.8
20260903101536 72 243 0.0 0.0 0.00 0.00 0.00 95 1012.7
20260903100058 73 243 0.0 0.0 0.00 0.00 0.00 95 1012.9
20260903094606 73 243 0.0 0.0 0.00 0.00 0.00 95 1012.9
20260903093019 72 243 0.0 0.0 0.00 0.00 0.00 95 1012.7
20260903091553 73 243 0.0 0.0 0.00 0.00 0.00 95 1012.7
20260903084556 73 244 0.0 0.0 0.00 0.00 0.00 95 1012.6
20260903083021 73 243 0.0 0.0 0.00 0.00 0.00 95 1012.6
20260903081545 74 243 0.0 0.0 0.00 0.00 0.00 95 1012.6
20260903080111 74 244 0.0 0.0 0.00 0.00 0.00 95 1012.5
20260903074504 74 243 0.0 0.0 0.00 0.00 0.00 95 1012.5
20260903073042 74 243 0.0 0.0 0.00 0.00 0.00 95 1012.6
20260903071545 74 244 0.0 0.0 0.00 0.00 0.00 95 1012.6
20260903070110 75 243 0.0 0.0 0.00 0.00 0.00 95 1012.6
20260903064508 75 243 0.0 0.0 0.00 0.00 0.00 95 1012.7
20260903063025 75 243 0.0 0.0 0.00 0.00 0.00 95 1012.8
20260903061556 75 243 0.0 0.0 0.00 0.00 0.00 94 1012.8
20260903060110 75 243 0.0 0.0 0.00 0.00 0.00 94 1012.8
20260903054518 75 243 0.0 0.0 0.00 0.00 0.00 94 1012.8
20260903053045 76 244 0.0 0.0 0.00 0.00 0.00 94 1012.8
20260903051506 76 243 0.0 0.0 0.00 0.00 0.00 94 1012.8
20260903050122 76 243 0.0 0.0 0.00 0.00 0.00 94 1012.8
20260903044517 75 243 0.0 0.0 0.00 0.00 0.00 94 1012.7
20260903043046 75 243 0.0 0.0 0.00 0.00 0.00 94 1012.6
20260903041559 76 243 0.0 0.0 0.00 0.00 0.00 94 1012.5
20260903040120 76 244 0.0 0.0 0.00 0.00 0.00 93 1012.6
20260903034529 76 243 0.0 0.0 0.00 0.00 0.00 93 1012.7
20260903033051 77 243 0.0 0.0 0.00 0.00 0.00 93 1012.7
20260903031516 77 243 0.0 0.0 0.00 0.00 0.00 93 1012.5
20260903030008 77 243 0.0 0.0 0.00 0.00 0.00 92 1012.6
20260903024530 78 243 0.0 0.0 0.00 0.00 0.00 92 1012.5
20260903023051 78 243 0.0 0.0 0.00 0.00 0.00 91 1012.6
20260903021511 78 243 0.0 0.0 0.00 0.00 0.00 91 1012.2
20260903020022 79 243 0.0 0.0 0.00 0.00 0.00 91 1012.1
20260903014528 79 244 0.0 0.0 0.00 0.00 0.00 90 1012.0
20260903013051 80 243 0.0 0.0 0.00 0.00 0.00 89 1011.9
20260903011511 80 243 0.0 0.0 0.00 0.00 0.00 88 1011.8
20260903010004 81 243 0.0 0.0 0.00 0.00 0.00 86 1011.6
20260903004534 82 243 0.0 0.0 0.00 0.00 0.00 84 1011.3
20260903003056 83 243 0.0 0.0 0.00 0.00 0.00 81 1011.2
20260903001517 84 244 0.0 0.0 0.00 0.00 0.00 80 1011.2
20260903000018 85 243 0.0 0.0 0.00 0.00 0.00 79 1011.3
20260902234529 86 244 0.0 0.0 0.00 0.00 0.00 79 1011.4
20260902233104 86 243 0.0 0.0 0.00 0.00 0.00 78 1011.5
20260902231514 87 241 0.0 0.0 0.00 0.00 0.00 77 1011.7
20260902230040 88 241 0.0 0.0 0.00 0.00 0.00 76 1011.7
20260902224549 89 241 0.0 0.0 0.00 0.00 0.00 75 1011.6
20260902223116 89 300 0.0 0.0 0.00 0.00 0.00 74 1011.7
20260902221523 90 305 0.0 0.0 0.00 0.00 0.00 71 1011.7
20260902220009 91 306 0.0 0.0 0.00 0.00 0.00 69 1011.9
20260902214536 92 306 0.0 0.0 0.00 0.00 0.00 71 1011.9
20260902213056 91 305 0.0 0.0 0.00 0.00 0.00 69 1011.9
20260902213002 91 306 0.0 0.0 0.00 0.00 0.00 70 1011.9
20260902211520 91 273 0.0 0.0 0.00 0.00 0.00 66 1012.0
20260902210040 92 276 0.0 0.0 0.00 0.00 0.00 70 1012.1
20260902204541 92 283 0.0 0.0 0.00 0.00 0.00 63 1012.1
20260902203059 93 271 0.0 0.0 0.00 0.00 0.00 64 1012.1
20260902201517 94 267 0.0 0.0 0.00 0.00 0.00 65 1012.1
20260902200042 94 236 0.0 0.0 0.00 0.00 0.00 65 1012.3